This is the latest recevied weather packets stored in our database for station/object DB0TGO-13. If no packets are shown the sender has not sent any weather packets the latest 10 day(s).
| Time | Temp. | Humidity | Pressure | Rain* | Wind** | Luminosity | Snow |
|---|---|---|---|---|---|---|---|
| 1778124603 | 6.67° C | 85% | 1004.9 hPa | - | - | - | - |
| 1778123702 | 6.67° C | 85% | 1004.8 hPa | - | - | - | - |
| 1778122803 | 6.67° C | 85% | 1004.8 hPa | - | - | - | - |
| 1778100302 | 10.56° C | 84% | 1002.9 hPa | - | - | - | - |
| 1778099402 | 10.56° C | 84% | 1002.9 hPa | - | - | - | - |
| 1778098502 | 10.56° C | 82% | 1002.4 hPa | - | - | - | - |
| 1778097602 | 10.56° C | 82% | 1002.4 hPa | - | - | - | - |
| 1778096702 | 10.56° C | 84% | 1002.2 hPa | - | - | - | - |
| 1778095802 | 10.56° C | 84% | 1002.2 hPa | - | - | - | - |
| 1778094902 | 10.56° C | 84% | 1002.1 hPa | - | - | - | - |
| 1778094002 | 10.56° C | 84% | 1002.1 hPa | - | - | - | - |
| 1778093102 | 11.11° C | 83% | 1001.6 hPa | - | - | - | - |
| 1778092202 | 11.11° C | 83% | 1001.6 hPa | - | - | - | - |
| 1778091302 | 11.67° C | 86% | 1001.5 hPa | - | - | - | - |
| 1778090403 | 11.67° C | 86% | 1001.5 hPa | - | - | - | - |
| 1778089502 | 11.67° C | 84% | 1001.5 hPa | - | - | - | - |
| 1778088602 | 11.67° C | 84% | 1001.5 hPa | - | - | - | - |
| 1778087702 | 12.22° C | 82% | 1001.3 hPa | - | - | - | - |
| 1778086803 | 12.22° C | 82% | 1001.3 hPa | - | - | - | - |
| 1778085903 | 12.22° C | 86% | 1001.7 hPa | - | - | - | - |
| 1778085002 | 12.22° C | 86% | 1001.7 hPa | - | - | - | - |
| 1778084102 | 12.22° C | 85% | 1001.7 hPa | - | - | - | - |
| 1778083203 | 12.22° C | 85% | 1001.7 hPa | - | - | - | - |
| 1778082302 | 12.22° C | 85% | 1001.5 hPa | - | - | - | - |
| 1778081403 | 12.22° C | 85% | 1001.5 hPa | - | - | - | - |
* Rain since midnight (hover to see other rain measurements)
** Current wind speed in m/s (hover to see current wind gust speed)